レモン-パンスターズ彗星

302P/Lemmon-PanSTARRS (2025)

English version
Home page
Updated on November 18, 2025

---------------------------------------------------------------------

・ プロフィール

・ 写真集

・ 軌道要素

Epoch 2025 May 5.0 TT = JDT 2460800.5
T 2025 Mar.  9.40281 TT                                 Pike
q   3.2886296            (2000.0)            P               Q
n   0.11180296     Peri.  208.62587     +0.86673190     +0.49068876
a   4.2674375      Node   121.71574     -0.43523877     +0.83164935
e   0.2293667      Incl.    6.03561     -0.24360424     +0.25996906
P   8.82
From 563 observations 2007 Aug. 16-2025 Aug. 5, mean residual 0".6.

・ 光度変化

        m1 = -1.5 + 5 logΔ + 30 log r(t - 50)

---------------------------------------------------------------------

軌道要素はM.P.E.C. 2025-P113に掲載されたものです。
光度グラフはComet for Windowsで作成したものです。

---------------------------------------------------------------------

Copyright(C) Seiichi Yoshida (comet@aerith.net). All rights reserved.